User: anonymous   Login
Location: Unspecified
(0.0000°N, 0.0000°E)
Time: 17:43:26
(UTC+00:00)
Language:

FALCON 9 R/B - Orbit

View from above orbital plane
View from above orbital plane
View from above satellite
View from above satellite

Ground track
Ground track

The orbit data is extracted from the following two-line orbital elements,

1 39271U 13055G   19052.42657593  .00003785  00000-0  92848-4 0  9992
2 39271  80.9656  63.7646 0606226 175.1123 185.6384 14.43784519281071
Epoch (UTC): 21 February 2019 10:14:16
Eccentricity: 0.0606226
inclination: 80.9656°
perigee height: 314 km
apogee height: 1178 km
right ascension of ascending node: 63.7646°
argument of perigee: 175.1123°
revolutions per day: 14.43784519
mean anomaly at epoch: 185.6384°
orbit number at epoch: 28107

The dashed part of the orbit path shows where the satellite is in the earth's shadow,  

DLR